This is the latest recevied weather packets stored in our database for station/object KF6FPU-15. If no packets are shown the sender has not sent any weather packets the latest 10 day(s).
| Time | Temp. | Humidity | Pressure | Rain* | Wind** | Luminosity | Snow |
|---|---|---|---|---|---|---|---|
| 1788044582 | 41.67° C | 17% | 1011.4 hPa | - | - | - | - |
| 1788043982 | 39.44° C | 17% | 1011.5 hPa | - | - | - | - |
| 1788043382 | 38.33° C | 17% | 1011.6 hPa | - | - | - | - |
| 1788042782 | 37.78° C | 17% | 1011.8 hPa | - | - | - | - |
| 1788042182 | 38.89° C | 17% | 1011.9 hPa | - | - | - | - |
| 1788041582 | 38.33° C | 17% | 1012 hPa | - | - | - | - |
| 1788040382 | 38.89° C | 17% | 1012.3 hPa | - | - | - | - |
| 1788039782 | 38.33° C | 17% | 1012.4 hPa | - | - | - | - |
| 1788039182 | 38.89° C | 17% | 1012.4 hPa | - | - | - | - |
| 1788038582 | 40° C | 17% | 1012.5 hPa | - | - | - | - |
| 1788037982 | 40° C | 17% | 1012.6 hPa | - | - | - | - |
| 1788037382 | 38.89° C | 17% | 1012.7 hPa | - | - | - | - |
| 1788036782 | 39.44° C | 17% | 1012.8 hPa | - | - | - | - |
| 1788036182 | 42.78° C | 17% | 1013 hPa | - | - | - | - |
| 1788035583 | 43.33° C | 17% | 1013 hPa | - | - | - | - |
| 1788034982 | 42.22° C | 17% | 1013.1 hPa | - | - | - | - |
| 1788033782 | 41.67° C | 17% | 1013.4 hPa | - | - | - | - |
| 1788033182 | 40.56° C | 18% | 1013.5 hPa | - | - | - | - |
| 1788032582 | 40° C | 18% | 1013.6 hPa | - | - | - | - |
| 1788031983 | 38.33° C | 18% | 1013.7 hPa | - | - | - | - |
| 1788031383 | 36.67° C | 18% | 1013.8 hPa | - | - | - | - |
| 1788030782 | 35° C | 19% | 1014 hPa | - | - | - | - |
| 1788030183 | 33.33° C | 19% | 1014 hPa | - | - | - | - |
| 1788029583 | 33.33° C | 19% | 1014.3 hPa | - | - | - | - |
| 1788028983 | 33.33° C | 19% | 1014.4 hPa | - | - | - | - |
* Rain since midnight (hover to see other rain measurements)
** Current wind speed in m/s (hover to see current wind gust speed)